| time (UTC) | temp F | wind direction | speed MPH | gust MPH | rain 1hr in | rain 24hr in | rain mn in | humidity % | barometer mb |
| 20260506083042 | 54 | 209 | 4.0 | 10.0 | 0.00 | 0.02 | 0.00 | 89 | 1008.5 |
| 20260506082532 | 54 | 130 | 4.0 | 10.0 | 0.00 | 0.02 | 0.00 | 89 | 1008.6 |
| 20260506082032 | 54 | 171 | 3.0 | 8.0 | 0.00 | 0.02 | 0.00 | 89 | 1008.7 |
| 20260506081544 | 53 | 142 | 3.0 | 7.0 | 0.00 | 0.02 | 0.00 | 90 | 1008.7 |
| 20260506081031 | 53 | 205 | 2.0 | 7.0 | 0.00 | 0.02 | 0.00 | 91 | 1008.7 |
| 20260506080529 | 53 | 207 | 4.0 | 7.0 | 0.00 | 0.02 | 0.00 | 91 | 1008.8 |
| 20260506073047 | 53 | 99 | 3.0 | 7.0 | 0.00 | 0.02 | 0.00 | 90 | 1009.0 |
| 20260506072534 | 54 | 163 | 2.0 | 4.0 | 0.00 | 0.02 | 0.00 | 90 | 1009.0 |
| 20260506072032 | 54 | 0 | 1.0 | 5.0 | 0.00 | 0.02 | 0.00 | 89 | 1009.0 |
| 20260506071547 | 54 | 113 | 1.0 | 5.0 | 0.00 | 0.02 | 0.00 | 89 | 1009.1 |
| 20260506071029 | 54 | 113 | 1.0 | 5.0 | 0.00 | 0.02 | 0.00 | 89 | 1009.1 |
| 20260506070529 | 54 | 0 | 0.0 | 0.0 | 0.00 | 0.02 | 0.00 | 88 | 1009.2 |
| 20260506062029 | 54 | 235 | 2.0 | 7.0 | 0.00 | 0.02 | 0.00 | 88 | 1009.0 |
| 20260506061545 | 55 | 252 | 2.0 | 7.0 | 0.00 | 0.02 | 0.00 | 88 | 1008.9 |
| 20260506061031 | 55 | 254 | 2.0 | 6.0 | 0.00 | 0.02 | 0.00 | 87 | 1009.0 |
| 20260506060531 | 55 | 263 | 2.0 | 8.0 | 0.00 | 0.02 | 0.00 | 87 | 1008.9 |
| 20260506051030 | 57 | 221 | 2.0 | 8.0 | 0.00 | 0.02 | 0.00 | 82 | 1009.4 |
| 20260506050531 | 57 | 221 | 2.0 | 8.0 | 0.00 | 0.02 | 0.00 | 82 | 1009.4 |
| 20260506045031 | 57 | 246 | 2.0 | 10.0 | 0.00 | 0.02 | 0.00 | 81 | 1009.6 |
| 20260506044549 | 57 | 200 | 3.0 | 10.0 | 0.00 | 0.02 | 0.00 | 81 | 1009.5 |
| 20260506044032 | 58 | 236 | 4.0 | 11.0 | 0.00 | 0.02 | 0.00 | 80 | 1009.4 |
| 20260506043530 | 58 | 227 | 4.0 | 11.0 | 0.00 | 0.02 | 0.00 | 80 | 1009.5 |
| 20260506043043 | 58 | 234 | 5.0 | 11.0 | 0.00 | 0.02 | 0.00 | 80 | 1009.4 |
| 20260506042532 | 58 | 236 | 3.0 | 14.0 | 0.00 | 0.02 | 0.00 | 79 | 1009.3 |
| 20260506042031 | 58 | 194 | 3.0 | 14.0 | 0.00 | 0.02 | 0.00 | 79 | 1009.3 |
| 20260506041543 | 58 | 225 | 3.0 | 10.0 | 0.00 | 0.02 | 0.00 | 78 | 1009.3 |
| 20260506041032 | 58 | 189 | 4.0 | 10.0 | 0.00 | 0.02 | 0.00 | 78 | 1009.5 |
| 20260506040532 | 58 | 263 | 3.0 | 12.0 | 0.00 | 0.02 | 0.00 | 78 | 1009.5 |
| 20260506040052 | 58 | 236 | 4.0 | 12.0 | 0.00 | 0.02 | 0.00 | 77 | 1009.4 |
| 20260506035531 | 58 | 233 | 3.0 | 10.0 | 0.00 | 0.02 | 0.02 | 78 | 1009.5 |
| 20260506035032 | 58 | 263 | 4.0 | 9.0 | 0.00 | 0.02 | 0.02 | 78 | 1009.4 |
| 20260506034539 | 58 | 248 | 3.0 | 10.0 | 0.00 | 0.02 | 0.02 | 78 | 1009.4 |
| 20260506034031 | 58 | 221 | 2.0 | 10.0 | 0.00 | 0.02 | 0.02 | 78 | 1009.5 |
| 20260506033530 | 58 | 217 | 4.0 | 10.0 | 0.00 | 0.02 | 0.02 | 78 | 1009.4 |
| 20260506033046 | 58 | 223 | 4.0 | 9.0 | 0.00 | 0.02 | 0.02 | 78 | 1009.5 |
| 20260506032531 | 58 | 246 | 3.0 | 12.0 | 0.00 | 0.02 | 0.02 | 78 | 1009.5 |
| 20260506032036 | 58 | 165 | 3.0 | 15.0 | 0.00 | 0.02 | 0.02 | 78 | 1009.5 |
| 20260506031549 | 58 | 235 | 4.0 | 15.0 | 0.00 | 0.02 | 0.02 | 78 | 1009.5 |
| 20260506031033 | 58 | 277 | 5.0 | 12.0 | 0.00 | 0.02 | 0.02 | 79 | 1009.5 |
| 20260506030531 | 57 | 216 | 5.0 | 11.0 | 0.00 | 0.02 | 0.02 | 80 | 1009.7 |
| 20260506030044 | 57 | 197 | 2.0 | 12.0 | 0.00 | 0.02 | 0.02 | 82 | 1009.7 |
| 20260506025532 | 57 | 188 | 6.0 | 12.0 | 0.00 | 0.02 | 0.02 | 82 | 1009.7 |
| 20260506025033 | 57 | 188 | 4.0 | 10.0 | 0.00 | 0.02 | 0.02 | 82 | 1009.7 |
| 20260506024550 | 57 | 182 | 4.0 | 10.0 | 0.00 | 0.02 | 0.02 | 81 | 1009.9 |
| 20260506024031 | 57 | 142 | 3.0 | 10.0 | 0.00 | 0.02 | 0.02 | 81 | 1009.7 |
| 20260506023532 | 57 | 121 | 4.0 | 10.0 | 0.00 | 0.02 | 0.02 | 81 | 1009.8 |
| 20260506023044 | 58 | 146 | 3.0 | 11.0 | 0.00 | 0.02 | 0.02 | 80 | 1009.6 |
| 20260506022531 | 58 | 123 | 4.0 | 11.0 | 0.00 | 0.02 | 0.02 | 80 | 1009.5 |
| 20260506022031 | 58 | 194 | 5.0 | 10.0 | 0.00 | 0.02 | 0.02 | 78 | 1009.4 |
| 20260506021541 | 58 | 159 | 3.0 | 10.0 | 0.00 | 0.02 | 0.02 | 79 | 1009.6 |
| 20260506021031 | 58 | 194 | 4.0 | 11.0 | 0.00 | 0.02 | 0.02 | 78 | 1009.7 |
| 20260506020530 | 59 | 117 | 4.0 | 11.0 | 0.00 | 0.02 | 0.02 | 77 | 1009.7 |
| 20260506020044 | 59 | 159 | 4.0 | 10.0 | 0.00 | 0.02 | 0.02 | 76 | 1009.7 |
| 20260506015534 | 59 | 166 | 4.0 | 14.0 | 0.00 | 0.02 | 0.02 | 74 | 1009.7 |
| 20260506015032 | 60 | 229 | 6.0 | 16.0 | 0.00 | 0.02 | 0.02 | 73 | 1009.6 |
| 20260506014545 | 60 | 181 | 7.0 | 16.0 | 0.00 | 0.02 | 0.02 | 71 | 1009.6 |
| 20260506014032 | 61 | 213 | 6.0 | 18.0 | 0.01 | 0.02 | 0.02 | 70 | 1009.7 |
| 20260506013534 | 61 | 192 | 4.0 | 18.0 | 0.01 | 0.02 | 0.02 | 68 | 1009.6 |
| 20260506013045 | 61 | 269 | 6.0 | 18.0 | 0.01 | 0.02 | 0.02 | 66 | 1009.5 |
| 20260506012529 | 61 | 245 | 7.0 | 13.0 | 0.01 | 0.02 | 0.02 | 68 | 1009.4 |
| 20260506012034 | 61 | 263 | 5.0 | 10.0 | 0.01 | 0.02 | 0.02 | 68 | 1009.2 |
| 20260506011547 | 61 | 239 | 4.0 | 14.0 | 0.01 | 0.02 | 0.02 | 67 | 1009.1 |
| 20260506011031 | 62 | 215 | 6.0 | 14.0 | 0.01 | 0.02 | 0.02 | 66 | 1008.9 |
| 20260506010528 | 62 | 219 | 6.0 | 20.0 | 0.01 | 0.02 | 0.02 | 64 | 1009.1 |
| 20260506010043 | 63 | 217 | 7.0 | 21.0 | 0.01 | 0.02 | 0.02 | 62 | 1008.9 |
| 20260506005529 | 63 | 217 | 7.0 | 21.0 | 0.01 | 0.02 | 0.02 | 61 | 1008.9 |
| 20260506005028 | 63 | 204 | 7.0 | 20.0 | 0.01 | 0.02 | 0.02 | 61 | 1008.7 |
| 20260506004545 | 62 | 178 | 9.0 | 18.0 | 0.01 | 0.02 | 0.02 | 62 | 1008.4 |
| 20260506004029 | 61 | 184 | 6.0 | 12.0 | 0.00 | 0.01 | 0.01 | 65 | 1008.6 |
| 20260506003529 | 61 | 262 | 7.0 | 12.0 | 0.00 | 0.01 | 0.01 | 65 | 1008.5 |
| 20260506003045 | 60 | 193 | 5.0 | 12.0 | 0.00 | 0.01 | 0.01 | 68 | 1008.3 |
| 20260506002529 | 60 | 259 | 6.0 | 13.0 | 0.00 | 0.01 | 0.01 | 68 | 1008.2 |
| 20260506002028 | 60 | 258 | 6.0 | 13.0 | 0.00 | 0.01 | 0.01 | 72 | 1008.1 |
| 20260506001546 | 60 | 236 | 5.0 | 12.0 | 0.00 | 0.01 | 0.01 | 73 | 1008.3 |
| 20260506001029 | 59 | 295 | 4.0 | 14.0 | 0.00 | 0.01 | 0.01 | 73 | 1008.2 |
| 20260506000529 | 59 | 222 | 6.0 | 14.0 | 0.00 | 0.01 | 0.01 | 73 | 1008.5 |
| 20260506000046 | 59 | 232 | 5.0 | 10.0 | 0.00 | 0.01 | 0.01 | 75 | 1008.5 |
| 20260505235530 | 59 | 236 | 5.0 | 10.0 | 0.00 | 0.01 | 0.01 | 76 | 1008.3 |
| 20260505235030 | 59 | 238 | 5.0 | 11.0 | 0.00 | 0.01 | 0.01 | 77 | 1008.2 |
| 20260505234550 | 59 | 257 | 6.0 | 13.0 | 0.00 | 0.01 | 0.01 | 77 | 1008.1 |
| 20260505234031 | 59 | 204 | 5.0 | 13.0 | 0.00 | 0.01 | 0.01 | 77 | 1008.2 |
| 20260505233529 | 59 | 250 | 7.0 | 12.0 | 0.00 | 0.01 | 0.01 | 77 | 1008.2 |
| 20260505233042 | 59 | 211 | 7.0 | 12.0 | 0.00 | 0.01 | 0.01 | 77 | 1008.1 |
| 20260505232529 | 59 | 275 | 6.0 | 12.0 | 0.00 | 0.01 | 0.01 | 78 | 1008.1 |
| 20260505232029 | 59 | 188 | 5.0 | 13.0 | 0.00 | 0.01 | 0.01 | 78 | 1008.1 |
| 20260505231559 | 59 | 247 | 7.0 | 14.0 | 0.00 | 0.01 | 0.01 | 79 | 1008.0 |
| 20260505231029 | 59 | 251 | 5.0 | 14.0 | 0.00 | 0.01 | 0.01 | 79 | 1007.8 |
| 20260505230529 | 59 | 234 | 6.0 | 17.0 | 0.01 | 0.01 | 0.01 | 79 | 1007.9 |
| 20260505230055 | 59 | 253 | 7.0 | 17.0 | 0.01 | 0.01 | 0.01 | 80 | 1007.9 |
| 20260505225531 | 59 | 253 | 6.0 | 14.0 | 0.01 | 0.01 | 0.01 | 82 | 1007.9 |
| 20260505225058 | 59 | 241 | 5.0 | 13.0 | 0.01 | 0.01 | 0.01 | 83 | 1007.9 |
| 20260505224547 | 59 | 252 | 6.0 | 13.0 | 0.01 | 0.01 | 0.01 | 82 | 1008.0 |
| 20260505224032 | 59 | 260 | 6.0 | 14.0 | 0.01 | 0.01 | 0.01 | 82 | 1007.8 |
| 20260505223532 | 59 | 263 | 7.0 | 15.0 | 0.01 | 0.01 | 0.01 | 80 | 1007.9 |
| 20260505223046 | 59 | 271 | 7.0 | 15.0 | 0.01 | 0.01 | 0.01 | 79 | 1007.7 |
| 20260505222533 | 59 | 269 | 8.0 | 15.0 | 0.01 | 0.01 | 0.01 | 80 | 1007.5 |
| 20260505222034 | 60 | 248 | 7.0 | 16.0 | 0.01 | 0.01 | 0.01 | 78 | 1007.5 |
| 20260505221544 | 62 | 244 | 6.0 | 17.0 | 0.01 | 0.01 | 0.01 | 74 | 1007.2 |
| 20260505221036 | 65 | 257 | 8.0 | 19.0 | 0.01 | 0.01 | 0.01 | 65 | 1007.2 |
| 20260505220532 | 69 | 312 | 9.0 | 19.0 | 0.00 | 0.00 | 0.00 | 51 | 1007.1 |
| 20260505220046 | 70 | 235 | 7.0 | 35.0 | 0.00 | 0.00 | 0.00 | 42 | 1006.6 |
| 20260505215533 | 70 | 261 | 10.0 | 35.0 | 0.00 | 0.00 | 0.00 | 41 | 1006.3 |
| 20260505215033 | 70 | 183 | 6.0 | 24.0 | 0.00 | 0.00 | 0.00 | 42 | 1006.2 |
| 20260505214541 | 70 | 225 | 8.0 | 27.0 | 0.00 | 0.00 | 0.00 | 41 | 1006.2 |
| 20260505214032 | 70 | 215 | 9.0 | 27.0 | 0.00 | 0.00 | 0.00 | 41 | 1006.2 |
| 20260505213533 | 71 | 195 | 8.0 | 28.0 | 0.00 | 0.00 | 0.00 | 41 | 1006.2 |
| 20260505213054 | 71 | 234 | 12.0 | 28.0 | 0.00 | 0.00 | 0.00 | 41 | 1006.2 |
| 20260505212533 | 71 | 171 | 10.0 | 25.0 | 0.00 | 0.00 | 0.00 | 41 | 1006.4 |
| 20260505212036 | 71 | 239 | 7.0 | 23.0 | 0.00 | 0.00 | 0.00 | 41 | 1006.1 |
| 20260505211547 | 71 | 209 | 10.0 | 22.0 | 0.00 | 0.00 | 0.00 | 41 | 1005.8 |
| 20260505211036 | 71 | 229 | 11.0 | 26.0 | 0.00 | 0.00 | 0.00 | 41 | 1005.9 |
| 20260505210532 | 71 | 186 | 8.0 | 26.0 | 0.00 | 0.00 | 0.00 | 41 | 1005.9 |
| 20260505210046 | 71 | 213 | 10.0 | 33.0 | 0.00 | 0.00 | 0.00 | 43 | 1006.0 |
| 20260505205532 | 71 | 169 | 9.0 | 33.0 | 0.00 | 0.00 | 0.00 | 42 | 1005.8 |
| 20260505205032 | 71 | 200 | 11.0 | 33.0 | 0.00 | 0.00 | 0.00 | 42 | 1005.8 |
| 20260505204544 | 71 | 190 | 13.0 | 33.0 | 0.00 | 0.00 | 0.00 | 42 | 1005.7 |
| 20260505204033 | 71 | 239 | 14.0 | 34.0 | 0.00 | 0.00 | 0.00 | 42 | 1005.6 |
| 20260505203532 | 72 | 304 | 12.0 | 34.0 | 0.00 | 0.00 | 0.00 | 41 | 1005.7 |
| 20260505203042 | 72 | 178 | 12.0 | 27.0 | 0.00 | 0.00 | 0.00 | 41 | 1005.7 |
| 20260505202532 | 72 | 230 | 6.0 | 31.0 | 0.00 | 0.00 | 0.00 | 41 | 1005.7 |
| 20260505202032 | 72 | 231 | 11.0 | 31.0 | 0.00 | 0.00 | 0.00 | 40 | 1005.5 |
| 20260505201541 | 72 | 202 | 12.0 | 37.0 | 0.00 | 0.00 | 0.00 | 41 | 1005.7 |
| 20260505201033 | 72 | 160 | 13.0 | 37.0 | 0.00 | 0.00 | 0.00 | 41 | 1005.9 |
| 20260505200533 | 72 | 238 | 12.0 | 35.0 | 0.00 | 0.00 | 0.00 | 41 | 1005.7 |
| 20260505200046 | 72 | 205 | 12.0 | 34.0 | 0.00 | 0.00 | 0.00 | 41 | 1005.8 |
| 20260505195535 | 72 | 130 | 7.0 | 34.0 | 0.00 | 0.00 | 0.00 | 42 | 1006.1 |
| 20260505195032 | 72 | 204 | 13.0 | 34.0 | 0.00 | 0.00 | 0.00 | 41 | 1006.0 |
| 20260505194547 | 73 | 113 | 11.0 | 27.0 | 0.00 | 0.00 | 0.00 | 41 | 1005.7 |
| 20260505194033 | 72 | 250 | 10.0 | 27.0 | 0.00 | 0.00 | 0.00 | 42 | 1005.9 |
| 20260505193531 | 71 | 207 | 10.0 | 27.0 | 0.00 | 0.00 | 0.00 | 43 | 1006.0 |
| 20260505193042 | 71 | 131 | 13.0 | 28.0 | 0.00 | 0.00 | 0.00 | 43 | 1005.9 |
| 20260505192533 | 71 | 248 | 12.0 | 28.0 | 0.00 | 0.00 | 0.00 | 43 | 1006.0 |
| 20260505192030 | 71 | 182 | 11.0 | 26.0 | 0.00 | 0.00 | 0.00 | 43 | 1006.0 |
| 20260505191603 | 71 | 179 | 11.0 | 29.0 | 0.00 | 0.00 | 0.00 | 44 | 1006.2 |
| 20260505191032 | 71 | 181 | 13.0 | 29.0 | 0.00 | 0.00 | 0.00 | 43 | 1006.1 |
| 20260505190530 | 71 | 149 | 11.0 | 28.0 | 0.00 | 0.00 | 0.00 | 43 | 1006.0 |
| 20260505190043 | 71 | 225 | 13.0 | 27.0 | 0.00 | 0.00 | 0.00 | 43 | 1006.2 |
| 20260505185530 | 71 | 196 | 12.0 | 27.0 | 0.00 | 0.00 | 0.00 | 43 | 1006.0 |
| 20260505185030 | 71 | 232 | 10.0 | 27.0 | 0.00 | 0.00 | 0.00 | 43 | 1006.2 |
| 20260505184539 | 71 | 190 | 12.0 | 34.0 | 0.00 | 0.00 | 0.00 | 42 | 1006.2 |
| 20260505184032 | 71 | 175 | 11.0 | 34.0 | 0.00 | 0.00 | 0.00 | 42 | 1006.2 |
| 20260505183530 | 72 | 217 | 11.0 | 28.0 | 0.00 | 0.00 | 0.00 | 42 | 1006.5 |
| 20260505183045 | 72 | 144 | 10.0 | 26.0 | 0.00 | 0.00 | 0.00 | 42 | 1006.1 |
| 20260505182530 | 72 | 190 | 10.0 | 31.0 | 0.00 | 0.00 | 0.00 | 41 | 1006.3 |
| 20260505182030 | 73 | 221 | 7.0 | 33.0 | 0.00 | 0.00 | 0.00 | 40 | 1006.2 |
| 20260505181544 | 73 | 211 | 9.0 | 35.0 | 0.00 | 0.00 | 0.00 | 39 | 1006.4 |
| 20260505181031 | 73 | 193 | 16.0 | 35.0 | 0.00 | 0.00 | 0.00 | 39 | 1006.6 |
| 20260505180531 | 73 | 159 | 13.0 | 37.0 | 0.00 | 0.00 | 0.00 | 37 | 1006.8 |
| 20260505180058 | 74 | 243 | 13.0 | 37.0 | 0.00 | 0.00 | 0.00 | 36 | 1006.9 |
| 20260505175530 | 74 | 281 | 11.0 | 36.0 | 0.00 | 0.00 | 0.00 | 36 | 1006.8 |
| 20260505175030 | 75 | 174 | 12.0 | 36.0 | 0.00 | 0.00 | 0.00 | 36 | 1007.1 |
| 20260505174551 | 74 | 180 | 6.0 | 27.0 | 0.00 | 0.00 | 0.00 | 40 | 1007.0 |
| 20260505174030 | 74 | 59 | 11.0 | 27.0 | 0.00 | 0.00 | 0.00 | 39 | 1007.1 |
| 20260505173532 | 74 | 246 | 7.0 | 33.0 | 0.00 | 0.00 | 0.00 | 39 | 1007.1 |
| 20260505173047 | 74 | 170 | 10.0 | 33.0 | 0.00 | 0.00 | 0.00 | 40 | 1007.2 |
| 20260505172530 | 73 | 262 | 13.0 | 26.0 | 0.00 | 0.00 | 0.00 | 40 | 1007.2 |
| 20260505172029 | 73 | 167 | 8.0 | 24.0 | 0.00 | 0.00 | 0.00 | 40 | 1007.2 |
| 20260505171548 | 73 | 229 | 9.0 | 32.0 | 0.00 | 0.00 | 0.00 | 40 | 1007.2 |
| 20260505171030 | 73 | 165 | 15.0 | 32.0 | 0.00 | 0.00 | 0.00 | 39 | 1007.4 |
| 20260505170530 | 73 | 162 | 8.0 | 23.0 | 0.00 | 0.00 | 0.00 | 40 | 1007.2 |
| 20260505170047 | 73 | 219 | 10.0 | 28.0 | 0.00 | 0.00 | 0.00 | 39 | 1007.3 |
| 20260505165529 | 73 | 205 | 9.0 | 28.0 | 0.00 | 0.00 | 0.00 | 40 | 1007.3 |
| 20260505165031 | 73 | 174 | 14.0 | 26.0 | 0.00 | 0.00 | 0.00 | 39 | 1007.6 |
| 20260505164546 | 74 | 226 | 7.0 | 21.0 | 0.00 | 0.00 | 0.00 | 42 | 1007.3 |
| 20260505164031 | 73 | 167 | 6.0 | 24.0 | 0.00 | 0.00 | 0.00 | 41 | 1007.5 |
| 20260505163532 | 73 | 211 | 6.0 | 26.0 | 0.00 | 0.00 | 0.00 | 41 | 1007.6 |
| 20260505163042 | 73 | 260 | 11.0 | 26.0 | 0.00 | 0.00 | 0.00 | 41 | 1007.4 |
| 20260505162530 | 73 | 214 | 9.0 | 26.0 | 0.00 | 0.00 | 0.00 | 42 | 1007.8 |
| 20260505162032 | 72 | 202 | 7.0 | 17.0 | 0.00 | 0.00 | 0.00 | 43 | 1008.0 |
| 20260505161551 | 73 | 209 | 6.0 | 14.0 | 0.00 | 0.00 | 0.00 | 43 | 1007.9 |
| 20260505161032 | 72 | 220 | 6.0 | 17.0 | 0.00 | 0.00 | 0.00 | 44 | 1008.0 |
| 20260505160533 | 71 | 250 | 8.0 | 19.0 | 0.00 | 0.00 | 0.00 | 45 | 1008.0 |
| 20260505153045 | 69 | 352 | 10.0 | 25.0 | 0.00 | 0.00 | 0.00 | 47 | 1008.6 |
| 20260505152534 | 70 | 268 | 9.0 | 20.0 | 0.00 | 0.00 | 0.00 | 47 | 1008.6 |
| 20260505152032 | 70 | 188 | 6.0 | 17.0 | 0.00 | 0.00 | 0.00 | 48 | 1008.6 |
| 20260505151543 | 69 | 222 | 6.0 | 16.0 | 0.00 | 0.00 | 0.00 | 49 | 1008.6 |
| 20260505151034 | 69 | 247 | 6.0 | 20.0 | 0.00 | 0.00 | 0.00 | 49 | 1008.6 |
| 20260505150532 | 68 | 262 | 8.0 | 31.0 | 0.00 | 0.00 | 0.00 | 50 | 1008.6 |
| 20260505140532 | 65 | 147 | 6.0 | 18.0 | 0.00 | 0.00 | 0.00 | 54 | 1008.8 |
| 20260505125030 | 59 | 188 | 6.0 | 15.0 | 0.00 | 0.00 | 0.00 | 65 | 1008.9 |
| 20260505124542 | 59 | 211 | 6.0 | 15.0 | 0.00 | 0.00 | 0.00 | 67 | 1008.9 |
| 20260505124032 | 59 | 252 | 5.0 | 18.0 | 0.00 | 0.00 | 0.00 | 68 | 1008.8 |
| 20260505123529 | 59 | 205 | 8.0 | 18.0 | 0.00 | 0.00 | 0.00 | 68 | 1008.8 |
| 20260505123045 | 59 | 213 | 8.0 | 16.0 | 0.00 | 0.00 | 0.00 | 68 | 1008.8 |
| 20260505122530 | 59 | 238 | 7.0 | 16.0 | 0.00 | 0.00 | 0.00 | 68 | 1008.6 |
| 20260505122032 | 59 | 198 | 6.0 | 15.0 | 0.00 | 0.00 | 0.00 | 68 | 1008.6 |
| 20260505121543 | 58 | 168 | 4.0 | 12.0 | 0.00 | 0.00 | 0.00 | 68 | 1008.5 |
| 20260505121031 | 58 | 207 | 4.0 | 13.0 | 0.00 | 0.00 | 0.00 | 69 | 1008.6 |
| 20260505120531 | 57 | 206 | 5.0 | 14.0 | 0.00 | 0.00 | 0.00 | 70 | 1008.5 |
| 20260505120045 | 56 | 181 | 5.0 | 14.0 | 0.00 | 0.00 | 0.00 | 72 | 1008.6 |
| 20260505115530 | 54 | 181 | 3.0 | 11.0 | 0.00 | 0.00 | 0.00 | 76 | 1008.5 |
| 20260505115030 | 54 | 235 | 4.0 | 11.0 | 0.00 | 0.00 | 0.00 | 77 | 1008.4 |
| 20260505114544 | 53 | 227 | 3.0 | 7.0 | 0.00 | 0.00 | 0.00 | 78 | 1008.3 |
| 20260505114032 | 53 | 261 | 2.0 | 12.0 | 0.00 | 0.00 | 0.00 | 77 | 1008.4 |
| 20260505113529 | 54 | 246 | 4.0 | 12.0 | 0.00 | 0.00 | 0.00 | 76 | 1008.4 |
| 20260505113049 | 54 | 212 | 5.0 | 16.0 | 0.00 | 0.00 | 0.00 | 76 | 1008.5 |
| 20260505112529 | 54 | 236 | 6.0 | 16.0 | 0.00 | 0.00 | 0.00 | 75 | 1008.7 |
| 20260505112029 | 54 | 259 | 6.0 | 23.0 | 0.00 | 0.00 | 0.00 | 75 | 1008.7 |
| 20260505111543 | 55 | 186 | 8.0 | 23.0 | 0.00 | 0.00 | 0.00 | 72 | 1008.6 |
| 20260505111029 | 57 | 294 | 12.0 | 34.0 | 0.00 | 0.00 | 0.00 | 65 | 1008.6 |
| 20260505110535 | 58 | 178 | 12.0 | 34.0 | 0.00 | 0.00 | 0.00 | 63 | 1008.3 |
| 20260505102031 | 57 | 208 | 8.0 | 15.0 | 0.00 | 0.00 | 0.00 | 62 | 1007.9 |
| 20260505101600 | 57 | 252 | 6.0 | 20.0 | 0.00 | 0.00 | 0.00 | 62 | 1007.7 |
| 20260505101034 | 57 | 229 | 7.0 | 20.0 | 0.00 | 0.00 | 0.00 | 62 | 1007.8 |
| 20260505100529 | 57 | 185 | 7.0 | 15.0 | 0.00 | 0.00 | 0.00 | 62 | 1007.7 |
| 20260505100100 | 56 | 243 | 5.0 | 18.0 | 0.00 | 0.00 | 0.00 | 62 | 1007.6 |
| 20260505095536 | 56 | 200 | 6.0 | 18.0 | 0.00 | 0.00 | 0.00 | 62 | 1007.6 |
| 20260505095032 | 56 | 274 | 7.0 | 24.0 | 0.00 | 0.00 | 0.00 | 62 | 1007.6 |
| 20260505094547 | 56 | 189 | 7.0 | 24.0 | 0.00 | 0.00 | 0.00 | 62 | 1007.8 |
| 20260505094029 | 56 | 277 | 5.0 | 15.0 | 0.00 | 0.00 | 0.00 | 63 | 1007.7 |
| 20260505093532 | 55 | 209 | 7.0 | 17.0 | 0.00 | 0.00 | 0.00 | 63 | 1007.9 |
| 20260505093051 | 55 | 196 | 5.0 | 17.0 | 0.00 | 0.00 | 0.00 | 63 | 1007.7 |
| 20260505092532 | 55 | 224 | 6.0 | 17.0 | 0.00 | 0.00 | 0.00 | 63 | 1007.7 |
| 20260505092032 | 54 | 232 | 5.0 | 14.0 | 0.00 | 0.00 | 0.00 | 63 | 1007.8 |
| 20260505091542 | 54 | 232 | 5.0 | 14.0 | 0.00 | 0.00 | 0.00 | 63 | 1007.9 |
| 20260505091031 | 54 | 190 | 5.0 | 13.0 | 0.00 | 0.00 | 0.00 | 63 | 1007.7 |
| 20260505090531 | 54 | 245 | 4.0 | 12.0 | 0.00 | 0.00 | 0.00 | 63 | 1007.8 |
| 20260505090037 | 54 | 211 | 6.0 | 16.0 | 0.00 | 0.00 | 0.00 | 62 | 1007.9 |
| 20260505085529 | 54 | 261 | 6.0 | 18.0 | 0.00 | 0.00 | 0.00 | 62 | 1007.9 |
| 20260505085032 | 54 | 205 | 6.0 | 25.0 | 0.00 | 0.00 | 0.00 | 62 | 1008.1 |
| 20260505084546 | 54 | 209 | 9.0 | 25.0 | 0.00 | 0.00 | 0.00 | 62 | 1008.1 |
| 20260505084029 | 54 | 208 | 6.0 | 17.0 | 0.00 | 0.00 | 0.00 | 62 | 1008.1 |
| 20260505083529 | 54 | 195 | 7.0 | 17.0 | 0.00 | 0.00 | 0.00 | 61 | 1008.2 |